,,,PA_Meas_PMT16A,,PR_Meas_QMR101_102,,RH_Meas_QMH101,,SR_Meas_QMS101,,TA_Meas_QMH101,,GenWind,,GenWind,
date,time,status,PA,status,PR,status,RH,status,SR,status,TA,status,DirAvg,status,SpdAvg,
2010-01-11, 00:00:04,VALID,1001.21,VALID,0,VALID,90.4186,VALID,0,VALID,24.1872,VALID,245,VALID,0.144531,
2010-01-11, 00:01:04,VALID,1001.2,VALID,0,VALID,90.1516,VALID,0,VALID,24.1872,VALID,211,VALID,0.617188,
2010-01-11, 00:02:04,VALID,1001.18,VALID,0,VALID,89.7625,VALID,0,VALID,24.2086,VALID,217,VALID,0.767578,
2010-01-11, 00:03:04,VALID,1001.21,VALID,0,VALID,89.5489,VALID,0,VALID,24.1872,VALID,200,VALID,1.04844,
2010-01-11, 00:04:04,VALID,1001.21,VALID,0,VALID,89.3352,VALID,0.112286,VALID,24.2067,VALID,224,VALID,1.12422,
2010-01-11, 00:05:04,VALID,1001.15,VALID,0,VALID,89.4878,VALID,0,VALID,24.2067,VALID,187,VALID,0.951172,
2010-01-11, 00:06:04,VALID,1001.13,VALID,0,VALID,89.4268,VALID,0.112286,VALID,24.2067,VALID,190,VALID,1.27266,
2010-01-11, 00:07:04,VALID,1001.11,VALID,0,VALID,89.442,VALID,0,VALID,24.2067,VALID,201,VALID,1.46953,
2010-01-11, 00:08:04,VALID,1001.08,VALID,0,VALID,89.5489,VALID,0.112286,VALID,24.2458,VALID,197,VALID,0.725391,
2010-01-11, 00:09:04,VALID,1001.03,VALID,0,VALID,89.1521,VALID,0,VALID,24.2263,VALID,205,VALID,1.11172,
2010-01-11, 00:10:04,VALID,1001.02,VALID,0,VALID,89.0682,VALID,0.112286,VALID,24.2067,VALID,216,VALID,1.08281,
2010-01-11, 00:11:04,VALID,1000.95,VALID,0,VALID,89.2513,VALID,0,VALID,24.2281,VALID,183,VALID,1.19922,
2010-01-11, 00:12:04,VALID,1000.95,VALID,0,VALID,89.2742,VALID,0,VALID,24.1872,VALID,182,VALID,1.50742,
2010-01-11, 00:13:04,VALID,1000.93,VALID,0,VALID,89.2894,VALID,0,VALID,24.1696,VALID,182,VALID,1.04492,
2010-01-11, 00:14:04,VALID,1000.92,VALID,0,VALID,89.4802,VALID,0,VALID,24.1891,VALID,192,VALID,0.861328,
2010-01-11, 00:15:04,VALID,1000.91,VALID,0,VALID,89.6251,VALID,0,VALID,24.1891,VALID,205,VALID,1.02031,
2010-01-11, 00:16:04,VALID,1000.92,VALID,0,VALID,89.3963,VALID,0,VALID,24.1909,VALID,222,VALID,0.687891,
2010-01-11, 00:17:04,VALID,1000.87,VALID,0,VALID,89.2437,VALID,0,VALID,24.1696,VALID,227,VALID,0.751953,
2010-01-11, 00:18:04,VALID,1000.84,VALID,0,VALID,89.381,VALID,0,VALID,24.1696,VALID,178,VALID,0.596875,
2010-01-11, 00:19:04,VALID,1000.85,VALID,0,VALID,89.2437,VALID,0,VALID,24.15,VALID,171,VALID,0.5125,
2010-01-11, 00:20:04,VALID,1000.85,VALID,0,VALID,89.3886,VALID,0,VALID,24.1305,VALID,184,VALID,0.853516,
2010-01-11, 00:21:04,VALID,1000.86,VALID,0,VALID,89.1063,VALID,0,VALID,24.1305,VALID,198,VALID,0.449219,
2010-01-11, 00:22:04,VALID,1000.85,VALID,0,VALID,88.9766,VALID,0,VALID,24.111,VALID,168,VALID,0.960156,
2010-01-11, 00:23:04,VALID,1000.81,VALID,0,VALID,89.03,VALID,0,VALID,24.0915,VALID,156,VALID,0.947266,
2010-01-11, 00:24:04,VALID,1000.8,VALID,0,VALID,89.1674,VALID,0,VALID,24.072,VALID,170,VALID,0.461328,
2010-01-11, 00:25:04,VALID,1000.77,VALID,0,VALID,89.3734,VALID,0,VALID,24.072,VALID,171,VALID,0.629297,
2010-01-11, 00:26:04,VALID,1000.79,VALID,0,VALID,89.4649,VALID,0,VALID,24.0738,VALID,139,VALID,0.936328,
2010-01-11, 00:27:04,VALID,1000.77,VALID,0,VALID,89.648,VALID,0,VALID,24.0134,VALID,129,VALID,0.618359,
2010-01-11, 00:28:04,VALID,1000.77,VALID,0,VALID,89.8998,VALID,0,VALID,23.9921,VALID,138,VALID,0.776563,
2010-01-11, 00:29:04,VALID,1000.72,VALID,0,VALID,90.1211,VALID,0,VALID,23.9531,VALID,130,VALID,0.417578,
2010-01-11, 00:30:04,VALID,1000.72,VALID,0,VALID,90.1592,VALID,0,VALID,23.9354,VALID,130,VALID,0.00585938,
2010-01-11, 00:31:04,VALID,1000.7,VALID,0,VALID,90.2737,VALID,0,VALID,23.8945,VALID,130,VALID,0,
2010-01-11, 00:32:04,VALID,1000.67,VALID,0,VALID,90.472,VALID,0,VALID,23.875,VALID,130,VALID,0.0210938,
2010-01-11, 00:33:04,VALID,1000.67,VALID,0,VALID,90.5254,VALID,0,VALID,23.8555,VALID,131,VALID,0.732813,
2010-01-11, 00:34:04,VALID,1000.63,VALID,0,VALID,90.7162,VALID,0,VALID,23.8555,VALID,131,VALID,0.671484,
2010-01-11, 00:35:04,VALID,1000.64,VALID,0,VALID,90.9756,VALID,0,VALID,23.8573,VALID,126,VALID,0.916406,
2010-01-11, 00:36:04,VALID,1000.58,VALID,0,VALID,91.0748,VALID,0,VALID,23.8378,VALID,137,VALID,1.03398,
2010-01-11, 00:37:04,VALID,1000.59,VALID,0,VALID,91.09,VALID,0,VALID,23.797,VALID,131,VALID,1.4043,
2010-01-11, 00:38:04,VALID,1000.56,VALID,0,VALID,91.1434,VALID,0.112286,VALID,23.797,VALID,127,VALID,1.26328,
2010-01-11, 00:39:04,VALID,1000.56,VALID,0,VALID,91.3266,VALID,0,VALID,23.797,VALID,120,VALID,1.08594,
2010-01-11, 00:40:04,VALID,1000.56,VALID,0,VALID,91.3952,VALID,0,VALID,23.8183,VALID,117,VALID,1.30156,
2010-01-11, 00:41:04,VALID,1000.54,VALID,0,VALID,91.4486,VALID,0,VALID,23.7579,VALID,121,VALID,1.02227,
2010-01-11, 00:42:04,VALID,1000.52,VALID,0,VALID,91.4563,VALID,0,VALID,23.7579,VALID,116,VALID,0.971484,
2010-01-11, 00:43:04,VALID,1000.49,VALID,0,VALID,91.3876,VALID,0,VALID,23.7616,VALID,121,VALID,1.21133,
2010-01-11, 00:44:04,VALID,1000.47,VALID,0,VALID,91.3952,VALID,0,VALID,23.7402,VALID,126,VALID,0.778906,
2010-01-11, 00:45:04,VALID,1000.44,VALID,0,VALID,91.4486,VALID,0,VALID,23.7402,VALID,126,VALID,0.55,
2010-01-11, 00:46:04,VALID,1000.42,VALID,0,VALID,91.4868,VALID,0,VALID,23.742,VALID,112,VALID,0.964844,
2010-01-11, 00:47:04,VALID,1000.39,VALID,0,VALID,91.5326,VALID,0,VALID,23.742,VALID,119,VALID,1.0043,
2010-01-11, 00:48:04,VALID,1000.39,VALID,0,VALID,91.586,VALID,0,VALID,23.7012,VALID,119,VALID,0.792188,
2010-01-11, 00:49:04,VALID,1000.38,VALID,0,VALID,91.5554,VALID,0,VALID,23.7225,VALID,117,VALID,0.782812,
2010-01-11, 00:50:04,VALID,1000.37,VALID,0,VALID,91.5554,VALID,0,VALID,23.6817,VALID,107,VALID,0.894141,
2010-01-11, 00:51:04,VALID,1000.35,VALID,0,VALID,91.5326,VALID,0,VALID,23.6622,VALID,128,VALID,0.923828,
2010-01-11, 00:52:04,VALID,1000.34,VALID,0,VALID,91.5554,VALID,0,VALID,23.6622,VALID,123,VALID,0.641797,
2010-01-11, 00:53:04,VALID,1000.3,VALID,0,VALID,91.5402,VALID,0,VALID,23.6835,VALID,126,VALID,0.693359,
2010-01-11, 00:54:04,VALID,1000.28,VALID,0,VALID,91.5402,VALID,0,VALID,23.6427,VALID,123,VALID,0.680469,
2010-01-11, 00:55:04,VALID,1000.3,VALID,0,VALID,91.5783,VALID,0,VALID,23.664,VALID,121,VALID,0.629297,
2010-01-11, 00:56:04,VALID,1000.23,VALID,0,VALID,91.6088,VALID,0,VALID,23.664,VALID,119,VALID,1.04688,
2010-01-11, 00:57:04,VALID,1000.2,VALID,0,VALID,91.6088,VALID,0,VALID,23.6445,VALID,118,VALID,0.960938,
2010-01-11, 00:58:04,VALID,1000.17,VALID,0,VALID,91.6012,VALID,0,VALID,23.6214,VALID,121,VALID,1.01602,
2010-01-11, 00:59:04,VALID,1000.17,VALID,0,VALID,91.6546,VALID,0,VALID,23.6427,VALID,110,VALID,0.944922,
2010-01-11, 01:00:04,VALID,1000.14,VALID,0,VALID,91.6775,VALID,0,VALID,23.6427,VALID,120,VALID,0.603516,
2010-01-11, 01:01:04,VALID,1000.15,VALID,0,VALID,91.6317,VALID,0,VALID,23.6019,VALID,106,VALID,0.402344,
2010-01-11, 01:02:04,VALID,1000.14,VALID,0,VALID,91.7157,VALID,0,VALID,23.6427,VALID,103,VALID,0.351172,
2010-01-11, 01:03:04,VALID,1000.15,VALID,0,VALID,91.7385,VALID,0,VALID,23.6232,VALID,103,VALID,0,
2010-01-11, 01:04:04,VALID,1000.17,VALID,0,VALID,91.7538,VALID,0,VALID,23.5823,VALID,102,VALID,0,
2010-01-11, 01:05:04,VALID,1000.16,VALID,0,VALID,91.8225,VALID,0,VALID,23.6036,VALID,102,VALID,0,
2010-01-11, 01:06:04,VALID,1000.13,VALID,0,VALID,91.8911,VALID,0,VALID,23.5823,VALID,101,VALID,0,
2010-01-11, 01:07:04,VALID,1000.15,VALID,0,VALID,91.8988,VALID,0,VALID,23.6036,VALID,101,VALID,0,
2010-01-11, 01:08:04,VALID,1000.15,VALID,0,VALID,91.9445,VALID,0,VALID,23.5628,VALID,101,VALID,0,
2010-01-11, 01:09:04,VALID,1000.12,VALID,0,VALID,91.9751,VALID,0,VALID,23.5433,VALID,101,VALID,0,
2010-01-11, 01:10:04,VALID,1000.12,VALID,0,VALID,92.0285,VALID,0,VALID,23.5433,VALID,101,VALID,0,
2010-01-11, 01:11:04,VALID,1000.12,VALID,0,VALID,92.0819,VALID,0,VALID,23.5646,VALID,51,VALID,0.0722656,
2010-01-11, 01:12:04,VALID,1000.13,VALID,0,VALID,92.059,VALID,0,VALID,23.5433,VALID,37,VALID,0.176563,
2010-01-11, 01:13:04,VALID,1000.12,VALID,0,VALID,91.9827,VALID,0,VALID,23.5256,VALID,37,VALID,0,
2010-01-11, 01:14:04,VALID,1000.13,VALID,0,VALID,91.9217,VALID,0,VALID,23.5061,VALID,37,VALID,0,
2010-01-11, 01:15:04,VALID,1000.11,VALID,0,VALID,91.8759,VALID,0,VALID,23.5274,VALID,37,VALID,0,
2010-01-11, 01:16:04,VALID,1000.1,VALID,0,VALID,91.8835,VALID,0,VALID,23.5061,VALID,37,VALID,0,
2010-01-11, 01:17:04,VALID,1000.09,VALID,0,VALID,91.8683,VALID,0,VALID,23.4866,VALID,37,VALID,0,
2010-01-11, 01:18:04,VALID,1000.08,VALID,0,VALID,91.8911,VALID,0,VALID,23.5079,VALID,40,VALID,0,
2010-01-11, 01:19:04,VALID,1000.08,VALID,0,VALID,91.853,VALID,0,VALID,23.4688,VALID,44,VALID,0,
2010-01-11, 01:20:04,VALID,1000.05,VALID,0,VALID,91.7614,VALID,0,VALID,23.4493,VALID,57,VALID,0.906641,
2010-01-11, 01:21:04,VALID,1000.05,VALID,0,VALID,91.7233,VALID,0,VALID,23.428,VALID,42,VALID,0.964063,
2010-01-11, 01:22:04,VALID,1000.04,VALID,0,VALID,91.7462,VALID,0,VALID,23.4085,VALID,39,VALID,1.21328,
2010-01-11, 01:23:04,VALID,1000.05,VALID,0,VALID,91.8911,VALID,0,VALID,23.4085,VALID,37,VALID,1.09492,
2010-01-11, 01:24:04,VALID,1000.03,VALID,0,VALID,91.9827,VALID,0,VALID,23.389,VALID,37,VALID,1.31836,
2010-01-11, 01:25:04,VALID,1000.02,VALID,0,VALID,92.0514,VALID,0,VALID,23.4085,VALID,38,VALID,1.32266,
2010-01-11, 01:26:04,VALID,1000.02,VALID,0,VALID,92.1277,VALID,0,VALID,23.4085,VALID,45,VALID,1.28672,
2010-01-11, 01:27:04,VALID,1000.03,VALID,0,VALID,92.1582,VALID,0,VALID,23.4085,VALID,45,VALID,1.04531,
2010-01-11, 01:28:04,VALID,999.988,VALID,0,VALID,92.1048,VALID,0,VALID,23.428,VALID,47,VALID,0.600781,
2010-01-11, 01:29:04,VALID,999.99,VALID,0,VALID,92.059,VALID,0,VALID,23.4475,VALID,47,VALID,0,
2010-01-11, 01:30:04,VALID,999.987,VALID,0,VALID,92.0819,VALID,0,VALID,23.4688,VALID,53,VALID,0.286328,
2010-01-11, 01:31:04,VALID,999.964,VALID,0,VALID,92.1887,VALID,0,VALID,23.428,VALID,73,VALID,0.807813,
2010-01-11, 01:32:04,VALID,999.901,VALID,0,VALID,92.2421,VALID,0,VALID,23.428,VALID,87,VALID,0.963281,
2010-01-11, 01:33:04,VALID,999.922,VALID,0,VALID,92.2803,VALID,0,VALID,23.428,VALID,86,VALID,0.748828,
2010-01-11, 01:34:04,VALID,999.907,VALID,0,VALID,92.3718,VALID,0,VALID,23.4085,VALID,86,VALID,0.576953,
2010-01-11, 01:35:04,VALID,999.919,VALID,0,VALID,92.471,VALID,0,VALID,23.4085,VALID,83,VALID,0.938672,
2010-01-11, 01:36:04,VALID,999.885,VALID,0,VALID,92.4863,VALID,0,VALID,23.4085,VALID,84,VALID,0.910547,
2010-01-11, 01:37:04,VALID,999.884,VALID,0,VALID,92.5168,VALID,0,VALID,23.4103,VALID,86,VALID,0.577344,
2010-01-11, 01:38:04,VALID,999.855,VALID,0,VALID,92.5091,VALID,0,VALID,23.35,VALID,86,VALID,0.428516,
2010-01-11, 01:39:04,VALID,999.86,VALID,0,VALID,92.4557,VALID,0,VALID,23.3713,VALID,86,VALID,0.466406,
2010-01-11, 01:40:04,VALID,999.857,VALID,0,VALID,92.471,VALID,0,VALID,23.3305,VALID,95,VALID,0.611719,
2010-01-11, 01:41:04,VALID,999.842,VALID,0,VALID,92.5091,VALID,0,VALID,23.3518,VALID,108,VALID,0.898438,
2010-01-11, 01:42:04,VALID,999.856,VALID,0,VALID,92.5626,VALID,0,VALID,23.3305,VALID,103,VALID,0.899219,
2010-01-11, 01:43:04,VALID,999.812,VALID,0,VALID,92.6312,VALID,0,VALID,23.35,VALID,106,VALID,1.19961,
2010-01-11, 01:44:04,VALID,999.804,VALID,0,VALID,92.6846,VALID,0,VALID,23.35,VALID,110,VALID,0.977734,
2010-01-11, 01:45:04,VALID,999.799,VALID,0,VALID,92.6923,VALID,0,VALID,23.35,VALID,113,VALID,0.663281,
2010-01-11, 01:46:04,VALID,999.763,VALID,0,VALID,92.6617,VALID,0,VALID,23.35,VALID,126,VALID,0.433984,
2010-01-11, 01:47:04,VALID,999.764,VALID,0,VALID,92.6541,VALID,0,VALID,23.35,VALID,119,VALID,0.660937,
2010-01-11, 01:48:04,VALID,999.751,VALID,0,VALID,92.6236,VALID,0,VALID,23.311,VALID,115,VALID,0.628516,
2010-01-11, 01:49:04,VALID,999.727,VALID,0,VALID,92.6083,VALID,0,VALID,23.3323,VALID,131,VALID,0.742578,
2010-01-11, 01:50:04,VALID,999.709,VALID,0,VALID,92.6083,VALID,0,VALID,23.35,VALID,134,VALID,0.598437,
2010-01-11, 01:51:04,VALID,999.721,VALID,0,VALID,92.6312,VALID,0,VALID,23.35,VALID,134,VALID,0.570703,
2010-01-11, 01:52:04,VALID,999.681,VALID,0,VALID,92.5778,VALID,0,VALID,23.3713,VALID,124,VALID,0.738672,
2010-01-11, 01:53:04,VALID,999.663,VALID,0,VALID,92.5702,VALID,0,VALID,23.3695,VALID,107,VALID,0.528125,
2010-01-11, 01:54:04,VALID,999.706,VALID,0,VALID,92.5854,VALID,0,VALID,23.3695,VALID,109,VALID,0.786328,
2010-01-11, 01:55:04,VALID,999.685,VALID,0,VALID,92.5778,VALID,0,VALID,23.4103,VALID,255,VALID,0.0496094,
2010-01-11, 01:56:04,VALID,999.663,VALID,0,VALID,92.5626,VALID,0,VALID,23.4085,VALID,271,VALID,0,
2010-01-11, 01:57:04,VALID,999.634,VALID,0,VALID,92.5168,VALID,0,VALID,23.428,VALID,287,VALID,0,
2010-01-11, 01:58:04,VALID,999.628,VALID,0,VALID,92.4557,VALID,0,VALID,23.4085,VALID,287,VALID,0,
2010-01-11, 01:59:04,VALID,999.613,VALID,0,VALID,92.4252,VALID,0,VALID,23.428,VALID,287,VALID,0,
2010-01-11, 02:00:04,VALID,999.586,VALID,0,VALID,92.3718,VALID,0,VALID,23.4475,VALID,287,VALID,0,
2010-01-11, 02:01:04,VALID,999.547,VALID,0,VALID,92.3718,VALID,0,VALID,23.428,VALID,287,VALID,0,
2010-01-11, 02:02:04,VALID,999.553,VALID,0,VALID,92.1811,VALID,0,VALID,23.428,VALID,134,VALID,0,
2010-01-11, 02:03:04,VALID,999.511,VALID,0,VALID,91.9445,VALID,0,VALID,23.4475,VALID,124,VALID,0,
2010-01-11, 02:04:04,VALID,999.508,VALID,0,VALID,91.7614,VALID,0,VALID,23.4671,VALID,114,VALID,0,
2010-01-11, 02:05:04,VALID,999.483,VALID,0,VALID,91.7157,VALID,0,VALID,23.4866,VALID,112,VALID,0,
2010-01-11, 02:06:04,VALID,999.501,VALID,0,VALID,91.6851,VALID,0,VALID,23.5061,VALID,113,VALID,0,
2010-01-11, 02:07:04,VALID,999.513,VALID,0,VALID,91.7004,VALID,0,VALID,23.5061,VALID,204,VALID,0,
2010-01-11, 02:08:04,VALID,999.509,VALID,0,VALID,91.7996,VALID,0,VALID,23.5061,VALID,154,VALID,0,
2010-01-11, 02:09:04,VALID,999.529,VALID,0,VALID,91.8606,VALID,0,VALID,23.5061,VALID,156,VALID,0,
2010-01-11, 02:10:04,VALID,999.494,VALID,0,VALID,91.9064,VALID,0,VALID,23.4866,VALID,159,VALID,0,
2010-01-11, 02:11:04,VALID,999.497,VALID,0,VALID,92.0209,VALID,0,VALID,23.4884,VALID,160,VALID,0,
2010-01-11, 02:12:04,VALID,999.502,VALID,0,VALID,92.0971,VALID,0,VALID,23.4866,VALID,134,VALID,0,
2010-01-11, 02:13:04,VALID,999.482,VALID,0,VALID,92.0285,VALID,0,VALID,23.4866,VALID,132,VALID,0,
2010-01-11, 02:14:04,VALID,999.456,VALID,0,VALID,92.0819,VALID,0,VALID,23.4653,VALID,130,VALID,0,
2010-01-11, 02:15:04,VALID,999.462,VALID,0,VALID,92.1048,VALID,0,VALID,23.4848,VALID,119,VALID,0,
2010-01-11, 02:16:04,VALID,999.46,VALID,0,VALID,92.0971,VALID,0,VALID,23.5061,VALID,110,VALID,0,
2010-01-11, 02:17:04,VALID,999.464,VALID,0,VALID,92.1277,VALID,0,VALID,23.4866,VALID,123,VALID,0.585156,
2010-01-11, 02:18:04,VALID,999.45,VALID,0,VALID,92.1734,VALID,0,VALID,23.4866,VALID,114,VALID,0.563281,
2010-01-11, 02:19:04,VALID,999.445,VALID,0,VALID,92.2803,VALID,0,VALID,23.4866,VALID,107,VALID,0.441016,
2010-01-11, 02:20:04,VALID,999.423,VALID,0,VALID,92.3031,VALID,0,VALID,23.4458,VALID,104,VALID,1.45586,
2010-01-11, 02:21:04,VALID,999.407,VALID,0,VALID,92.3718,VALID,0,VALID,23.4653,VALID,107,VALID,0.839453,
2010-01-11, 02:22:04,VALID,999.403,VALID,0,VALID,92.4405,VALID,0,VALID,23.4653,VALID,99,VALID,1.075,
2010-01-11, 02:23:04,VALID,999.408,VALID,0,VALID,92.5015,VALID,0,VALID,23.4653,VALID,90,VALID,0.940234,
2010-01-11, 02:24:04,VALID,999.424,VALID,0,VALID,92.4634,VALID,0,VALID,23.4866,VALID,82,VALID,1.10742,
2010-01-11, 02:25:04,VALID,999.398,VALID,0,VALID,92.4863,VALID,0,VALID,23.4653,VALID,63,VALID,1.05977,
2010-01-11, 02:26:04,VALID,999.453,VALID,0,VALID,92.4939,VALID,0,VALID,23.4866,VALID,60,VALID,0.757422,
2010-01-11, 02:27:04,VALID,999.46,VALID,0,VALID,92.4939,VALID,0,VALID,23.4866,VALID,45,VALID,1.03437,
2010-01-11, 02:28:04,VALID,999.484,VALID,0,VALID,92.471,VALID,0,VALID,23.4866,VALID,22,VALID,0.735937,
2010-01-11, 02:29:04,VALID,999.508,VALID,0,VALID,92.4481,VALID,0,VALID,23.4671,VALID,26,VALID,0.832422,
2010-01-11, 02:30:04,VALID,999.48,VALID,0,VALID,92.41,VALID,0,VALID,23.4263,VALID,6,VALID,0.732031,
2010-01-11, 02:31:04,VALID,999.466,VALID,0,VALID,92.3794,VALID,0,VALID,23.4263,VALID,14,VALID,0.64375,
2010-01-11, 02:32:04,VALID,999.458,VALID,0,VALID,92.3947,VALID,0,VALID,23.4263,VALID,16,VALID,0.546484,
2010-01-11, 02:33:04,VALID,999.489,VALID,0,VALID,92.41,VALID,0,VALID,23.4653,VALID,353,VALID,0.710547,
2010-01-11, 02:34:04,VALID,999.447,VALID,0,VALID,92.4405,VALID,0,VALID,23.4671,VALID,10,VALID,0.463672,
2010-01-11, 02:35:04,VALID,999.417,VALID,0,VALID,92.4786,VALID,0,VALID,23.4866,VALID,12,VALID,0.308203,
2010-01-11, 02:36:04,VALID,999.42,VALID,0,VALID,92.4786,VALID,0,VALID,23.4653,VALID,12,VALID,0,
2010-01-11, 02:37:04,VALID,999.366,VALID,0,VALID,92.4481,VALID,0,VALID,23.4458,VALID,72,VALID,0.0265625,
2010-01-11, 02:38:04,VALID,999.36,VALID,0,VALID,92.4405,VALID,0.112286,VALID,23.4653,VALID,107,VALID,0.642187,
2010-01-11, 02:39:04,VALID,999.347,VALID,0,VALID,92.204,VALID,0,VALID,23.4671,VALID,88,VALID,1.26016,
2010-01-11, 02:40:04,VALID,999.337,VALID,0,VALID,92.1811,VALID,0,VALID,23.4671,VALID,87,VALID,0.998438,
2010-01-11, 02:41:04,VALID,999.331,VALID,0,VALID,92.0514,VALID,0.112286,VALID,23.4458,VALID,89,VALID,1.29141,
2010-01-11, 02:42:04,VALID,999.285,VALID,0,VALID,92.059,VALID,0,VALID,23.4671,VALID,104,VALID,0.801172,
2010-01-11, 02:43:04,VALID,999.275,VALID,0,VALID,92.0514,VALID,0,VALID,23.5079,VALID,88,VALID,0.644922,
2010-01-11, 02:44:04,VALID,999.316,VALID,0,VALID,91.9827,VALID,0,VALID,23.4866,VALID,88,VALID,0.374219,
2010-01-11, 02:45:04,VALID,999.262,VALID,0,VALID,91.9674,VALID,0,VALID,23.4884,VALID,91,VALID,0.290625,
2010-01-11, 02:46:04,VALID,999.283,VALID,0,VALID,91.9064,VALID,0,VALID,23.4475,VALID,45,VALID,0.282813,
2010-01-11, 02:47:04,VALID,999.266,VALID,0,VALID,91.9217,VALID,0,VALID,23.4884,VALID,45,VALID,0.104297,
2010-01-11, 02:48:04,VALID,999.277,VALID,0,VALID,91.8988,VALID,0,VALID,23.4671,VALID,45,VALID,0,
2010-01-11, 02:49:04,VALID,999.287,VALID,0,VALID,91.9217,VALID,0,VALID,23.4884,VALID,45,VALID,0,
2010-01-11, 02:50:04,VALID,999.276,VALID,0,VALID,91.914,VALID,0,VALID,23.4475,VALID,45,VALID,0.00117188,
2010-01-11, 02:51:04,VALID,999.265,VALID,0,VALID,91.9064,VALID,0,VALID,23.4884,VALID,45,VALID,0,
2010-01-11, 02:52:04,VALID,999.245,VALID,0,VALID,91.8911,VALID,0,VALID,23.4671,VALID,45,VALID,0,
2010-01-11, 02:53:04,VALID,999.225,VALID,0,VALID,91.8759,VALID,0,VALID,23.4688,VALID,45,VALID,0,
2010-01-11, 02:54:04,VALID,999.227,VALID,0,VALID,91.914,VALID,0,VALID,23.4688,VALID,45,VALID,0,
2010-01-11, 02:55:04,VALID,999.251,VALID,0,VALID,91.914,VALID,0,VALID,23.4688,VALID,45,VALID,0,
2010-01-11, 02:56:04,VALID,999.236,VALID,0,VALID,91.9217,VALID,0,VALID,23.4475,VALID,45,VALID,0,
2010-01-11, 02:57:04,VALID,999.261,VALID,0,VALID,91.9522,VALID,0,VALID,23.4475,VALID,45,VALID,0,
2010-01-11, 02:58:04,VALID,999.226,VALID,0,VALID,91.9751,VALID,0,VALID,23.4671,VALID,45,VALID,0,
2010-01-11, 02:59:04,VALID,999.24,VALID,0,VALID,91.9598,VALID,0,VALID,23.4671,VALID,45,VALID,0,
2010-01-11, 03:00:04,VALID,999.244,VALID,0,VALID,91.9598,VALID,0,VALID,23.4475,VALID,45,VALID,0,
2010-01-11, 03:01:04,VALID,999.263,VALID,0,VALID,91.9751,VALID,0,VALID,23.4671,VALID,45,VALID,0,
2010-01-11, 03:02:04,VALID,999.28,VALID,0,VALID,92.0437,VALID,0,VALID,23.4671,VALID,45,VALID,0,
2010-01-11, 03:03:04,VALID,999.283,VALID,0,VALID,92.059,VALID,0,VALID,23.4653,VALID,57,VALID,0.767578,
2010-01-11, 03:04:04,VALID,999.263,VALID,0,VALID,92.0971,VALID,0,VALID,23.4866,VALID,63,VALID,0.576953,
2010-01-11, 03:05:04,VALID,999.28,VALID,0,VALID,92.0971,VALID,0,VALID,23.4866,VALID,71,VALID,0.866797,
2010-01-11, 03:06:04,VALID,999.301,VALID,0,VALID,92.12,VALID,0,VALID,23.4848,VALID,72,VALID,0.623828,
2010-01-11, 03:07:04,VALID,999.28,VALID,0,VALID,92.0743,VALID,0.112286,VALID,23.4653,VALID,61,VALID,0.826563,
2010-01-11, 03:08:04,VALID,999.276,VALID,0,VALID,92.0514,VALID,0,VALID,23.4671,VALID,50,VALID,0.815625,
2010-01-11, 03:09:04,VALID,999.27,VALID,0,VALID,92.0361,VALID,0,VALID,23.4475,VALID,47,VALID,0.548437,
2010-01-11, 03:10:04,VALID,999.287,VALID,0,VALID,92.0209,VALID,0,VALID,23.4475,VALID,35,VALID,0.770703,
2010-01-11, 03:11:04,VALID,999.274,VALID,0,VALID,91.8835,VALID,0,VALID,23.4067,VALID,34,VALID,0.901953,
2010-01-11, 03:12:04,VALID,999.268,VALID,0,VALID,91.8759,VALID,0.112286,VALID,23.4067,VALID,35,VALID,0.961719,
2010-01-11, 03:13:04,VALID,999.283,VALID,0,VALID,92.0361,VALID,0,VALID,23.4475,VALID,40,VALID,1.03945,
2010-01-11, 03:14:04,VALID,999.285,VALID,0,VALID,92.1506,VALID,0,VALID,23.4475,VALID,51,VALID,1.09414,
2010-01-11, 03:15:04,VALID,999.272,VALID,0,VALID,92.1506,VALID,0,VALID,23.4458,VALID,52,VALID,1.04922,
2010-01-11, 03:16:04,VALID,999.28,VALID,0,VALID,92.2345,VALID,0,VALID,23.4653,VALID,57,VALID,0.831641,
2010-01-11, 03:17:04,VALID,999.258,VALID,0,VALID,92.2268,VALID,0,VALID,23.4866,VALID,59,VALID,0.657812,
2010-01-11, 03:18:04,VALID,999.279,VALID,0,VALID,92.1277,VALID,0,VALID,23.4653,VALID,59,VALID,0.871484,
2010-01-11, 03:19:04,VALID,999.277,VALID,0,VALID,92.0437,VALID,0,VALID,23.4671,VALID,61,VALID,0.578516,
2010-01-11, 03:20:04,VALID,999.25,VALID,0,VALID,92.12,VALID,0,VALID,23.4848,VALID,51,VALID,0.773438,
2010-01-11, 03:21:04,VALID,999.265,VALID,0,VALID,92.0514,VALID,0,VALID,23.4653,VALID,51,VALID,0.798828,
2010-01-11, 03:22:04,VALID,999.268,VALID,0,VALID,92.0743,VALID,0,VALID,23.4866,VALID,50,VALID,0.780078,
2010-01-11, 03:23:04,VALID,999.343,VALID,0,VALID,92.1048,VALID,0,VALID,23.4848,VALID,50,VALID,0.563281,
2010-01-11, 03:24:04,VALID,999.339,VALID,0,VALID,92.0285,VALID,0,VALID,23.5061,VALID,60,VALID,0.452734,
2010-01-11, 03:25:04,VALID,999.337,VALID,0,VALID,92.0361,VALID,0,VALID,23.4866,VALID,60,VALID,0.392969,
2010-01-11, 03:26:04,VALID,999.363,VALID,0,VALID,92.12,VALID,0,VALID,23.5061,VALID,60,VALID,0.378516,
2010-01-11, 03:27:04,VALID,999.385,VALID,0,VALID,92.1658,VALID,0,VALID,23.5256,VALID,60,VALID,0.236719,
2010-01-11, 03:28:04,VALID,999.366,VALID,0,VALID,92.1887,VALID,0,VALID,23.4848,VALID,59,VALID,0.369531,
2010-01-11, 03:29:04,VALID,999.39,VALID,0,VALID,92.1963,VALID,0,VALID,23.4848,VALID,58,VALID,0.392188,
2010-01-11, 03:30:04,VALID,999.412,VALID,0,VALID,92.204,VALID,0,VALID,23.5256,VALID,58,VALID,0.00429688,
2010-01-11, 03:31:04,VALID,999.35,VALID,0,VALID,92.1963,VALID,0,VALID,23.5061,VALID,58,VALID,0,
2010-01-11, 03:32:04,VALID,999.367,VALID,0,VALID,92.2345,VALID,0,VALID,23.4848,VALID,58,VALID,0,
2010-01-11, 03:33:04,VALID,999.337,VALID,0,VALID,92.2574,VALID,0,VALID,23.5256,VALID,58,VALID,0.0886719,
2010-01-11, 03:34:04,VALID,999.344,VALID,0,VALID,92.2192,VALID,0,VALID,23.5061,VALID,58,VALID,0,
2010-01-11, 03:35:04,VALID,999.342,VALID,0,VALID,92.2345,VALID,0,VALID,23.5256,VALID,58,VALID,0,
2010-01-11, 03:36:04,VALID,999.346,VALID,0,VALID,92.2421,VALID,0,VALID,23.4848,VALID,58,VALID,0,
2010-01-11, 03:37:04,VALID,999.361,VALID,0,VALID,92.2421,VALID,0,VALID,23.5256,VALID,58,VALID,0,
2010-01-11, 03:38:04,VALID,999.352,VALID,0,VALID,92.265,VALID,0,VALID,23.5256,VALID,58,VALID,0,
2010-01-11, 03:39:05,VALID,999.375,VALID,0,VALID,92.3184,VALID,0,VALID,23.5256,VALID,58,VALID,0.170312,
2010-01-11, 03:40:05,VALID,999.374,VALID,0,VALID,92.2726,VALID,0,VALID,23.5256,VALID,25,VALID,0.824219,
2010-01-11, 03:41:05,VALID,999.359,VALID,0,VALID,92.3413,VALID,0,VALID,23.5238,VALID,25,VALID,0.863672,
2010-01-11, 03:42:05,VALID,999.379,VALID,0,VALID,92.3794,VALID,0,VALID,23.5433,VALID,25,VALID,0.683594,
2010-01-11, 03:43:05,VALID,999.372,VALID,0,VALID,92.3566,VALID,0,VALID,23.5238,VALID,25,VALID,0.500781,
2010-01-11, 03:44:05,VALID,999.389,VALID,0,VALID,92.3489,VALID,0,VALID,23.5451,VALID,26,VALID,0.294531,
2010-01-11, 03:45:05,VALID,999.426,VALID,0,VALID,92.3794,VALID,0,VALID,23.5451,VALID,26,VALID,0.443359,
2010-01-11, 03:46:05,VALID,999.396,VALID,0,VALID,92.3794,VALID,0,VALID,23.5433,VALID,26,VALID,0.316406,
2010-01-11, 03:47:05,VALID,999.394,VALID,0,VALID,92.4405,VALID,0,VALID,23.5433,VALID,26,VALID,0.221484,
2010-01-11, 03:48:05,VALID,999.385,VALID,0,VALID,92.4328,VALID,0,VALID,23.5451,VALID,29,VALID,0.471094,
2010-01-11, 03:49:05,VALID,999.412,VALID,0,VALID,92.471,VALID,0,VALID,23.5646,VALID,29,VALID,0.40625,